Weather History for Cheyenne, WY

Change the Weather History Date:

Tuesday, January 22, 2013

  Actual Average Record
Temperature  
Mean Temperature 44 °F 29 °F  
Max Temperature 55 °F 40 °F 62 °F (1981)
Min Temperature 32 °F 18 °F -18 °F (1962)
Degree Days  
Heating Degree Days 21 36  
Month to date heating degree days 875 793  
Since 1 July heating degree days 3577 3696  
Cooling Degree Days 0 0  
Month to date cooling degree days 0 0  
Year to date cooling degree days 0 0  
Moisture  
Dew Point -3 °F    
Average Humidity 17    
Maximum Humidity 24    
Minimum Humidity 9    
Precipitation  
Precipitation 0.00 in 0.01 in 0.16 in (1982)
Month to date precipitation 0.12 0.23  
Year to date precipitation 0.12 0.23  
Snow  
Snow 0.00 in 0.20 in 1.90 in (1982)
Month to date snowfall 2.9 4.2  
Since 1 July snowfall 28.3 26.9  
Snow Depth 0.00 in    
Sea Level Pressure  
Sea Level Pressure 30.04 in    
Wind  
Wind Speed 16 mph (West)    
Max Wind Speed 35 mph    
Max Gust Speed 47 mph    
Visibility 10 miles    
Events      
T = Trace of Precipitation, MM = Missing Value Source: NWS Daily Summary

Daily Weather History Graph

Daily Weather History Graph

Search for Another Location

Airport:

Trip Planner

Search our weather history database for the weather conditions in past years. The results will help you decide how hot, cold, wet, or windy it might be!

Date:

Astronomy

Jan. 22, 2013 Rise Set
Actual Time 7:18 AM MST 5:03 PM MST
Civil Twilight 6:48 AM MST 5:33 PM MST
Nautical Twilight 6:14 AM MST 6:07 PM MST
Astronomical Twilight 5:42 AM MST 6:40 PM MST
Moon 1:28 PM MST (1/22) 3:42 AM MST (1/22)
Length of Visible Light 10h 45m
Length of Day
9h 45m
Waxing Gibbous, 83% of the Moon is Illuminated
Jan 22
Waxing Gibbous
Jan 26
Full
Feb 3
Last Quarter
Feb 10
New
Feb 17
First Quarter

Hourly Weather History & Observations

Time (MST) Temp. Windchill Dew Point Humidity Pressure Visibility Wind Dir Wind Speed Gust Speed Precip Events Conditions
12:53 AM 37.9 °F 27.1 °F 1.0 °F 21% 29.94 in 10.0 mi West 23.0 mph - N/A   Clear
1:53 AM 39.9 °F 28.0 °F -0.0 °F 19% 29.93 in 10.0 mi West 32.2 mph 40.3 mph N/A   Clear
2:53 AM 39.9 °F 27.8 °F -0.0 °F 19% 29.92 in 10.0 mi West 33.4 mph 41.4 mph N/A   Clear
3:53 AM 39.9 °F 32.5 °F -0.0 °F 19% 29.96 in 10.0 mi WNW 12.7 mph 34.5 mph N/A   Clear
4:51 AM 39.2 °F 31.6 °F -0.4 °F 19% 30.02 in 10.0 mi WNW 12.7 mph 21.9 mph N/A   Clear
4:53 AM 39.0 °F 30.3 °F -0.9 °F 19% 29.98 in 10.0 mi WNW 16.1 mph - N/A   Clear
5:53 AM 39.0 °F 34.0 °F -0.9 °F 19% 30.05 in 10.0 mi Variable 6.9 mph 20.7 mph N/A   Clear
6:53 AM 33.1 °F 28.7 °F -0.0 °F 24% 30.10 in 10.0 mi NNE 4.6 mph - N/A   Clear
7:53 AM 36.0 °F 28.0 °F -0.0 °F 22% 30.08 in 10.0 mi WNW 11.5 mph - N/A   Clear
8:53 AM 41.0 °F 32.5 °F -0.9 °F 17% 30.08 in 10.0 mi West 17.3 mph - N/A   Clear
9:53 AM 46.0 °F 38.8 °F -4.0 °F 12% 30.08 in 10.0 mi WNW 18.4 mph - N/A   Clear
10:53 AM 50.0 °F - -5.1 °F 10% 30.05 in 10.0 mi West 6.9 mph 17.3 mph N/A   Clear
11:53 AM 51.1 °F - -4.0 °F 10% 30.03 in 10.0 mi West 18.4 mph 24.2 mph N/A   Clear
12:53 PM 54.0 °F - -2.9 °F 10% 29.99 in 10.0 mi West 17.3 mph 26.5 mph N/A   Clear
1:53 PM 55.0 °F - -2.9 °F 9% 29.96 in 10.0 mi West 20.7 mph 28.8 mph N/A   Clear
2:53 PM 54.0 °F - -2.0 °F 10% 29.98 in 10.0 mi West 21.9 mph 26.5 mph N/A   Clear
3:53 PM 50.0 °F - -0.9 °F 12% 30.00 in 10.0 mi West 18.4 mph 31.1 mph N/A   Clear
4:53 PM 48.0 °F - -0.9 °F 13% 30.04 in 10.0 mi West 16.1 mph - N/A   Clear
5:53 PM 45.0 °F 38.5 °F -2.9 °F 14% 30.08 in 10.0 mi WNW 13.8 mph 23.0 mph N/A   Clear
6:53 PM 37.9 °F 29.2 °F -0.9 °F 19% 30.15 in 10.0 mi West 15.0 mph - N/A   Clear
7:53 PM 37.9 °F 30.0 °F -2.0 °F 18% 30.16 in 10.0 mi West 12.7 mph - N/A   Clear
8:53 PM 39.9 °F 37.8 °F -5.1 °F 15% 30.12 in 10.0 mi Variable 3.5 mph - N/A   Clear
9:53 PM 42.1 °F 35.7 °F -8.0 °F 12% 30.08 in 10.0 mi WSW 11.5 mph - N/A   Clear
10:53 PM 41.0 °F 35.8 °F -11.0 °F 11% 30.07 in 10.0 mi West 8.1 mph - N/A   Clear
11:53 PM 43.0 °F 36.0 °F -13.0 °F 9% 30.05 in 10.0 mi West 13.8 mph 27.6 mph N/A   Clear